Meteo Giornale » Osservazioni meteo Gran Bretagna » Londra City AP

ore: 14:50 - Osservazioni Meteo Londra City AP
Lat. 51° 30' N Lon. 0° 30' W Alt. 5 metri s.l.m.

coperto_pioggia Europe/London

9 °C

Pioggia Debole

Temp. 24 Ore

9 °C

14 °C

Sud/Sud-Ovest

14.8 Km/h

Dew point 7 °C

Umidità 87 %

Visibilità  10 Km

Il sole sorge alle ore 07:07

Il sole tramonta alle ore 17:24

Data e Ora Cielo e Fenomeni T °C DP °C Um. % Pres. hPa Vis. km Vento km/h
Oggi h: 14:50 coperto_pioggia Pioggia Debole 9 7 87 1014 10 S/SO 14.8
Oggi h: 14:20 coperto_pioggia Pioggia Debole 9 7 87 1014 10 S/SO 13
Oggi h: 13:50 coperto_pioggia Pioggia Debole 9 7 87 1015 10 SO 13
Oggi h: 13:20 coperto_pioggia Pioggia Debole 9 7 87 1015 10 O/SO 13
Oggi h: 12:50 coperto_pioggia Pioggia Debole 10 6 76 1015 10 O/SO 18.5
Oggi h: 12:20 coperto_pioggia Pioggia Debole 10 7 81 1015 10 O/SO 14.8
Oggi h: 11:50 molto_nuvoloso Molto Nuvoloso 11 7 76 1015 10 O/SO 18.5
Oggi h: 11:20 poco_nuvoloso Poco Nuvoloso 10 8 87 1015 10 S/SO 9.3
Oggi h: 10:50 sereno Sereno 10 8 87 1015 10 N 7.4
Oggi h: 10:20 poco_nuvoloso Poco Nuvoloso 10 8 87 1015 10 S/SO 9.3
Oggi h: 09:50 molto_nuvoloso Molto Nuvoloso 10 8 87 1016 10 SO 11.1
Oggi h: 09:20 molto_nuvoloso Molto Nuvoloso 10 8 87 1016 10 S/SO 13
Oggi h: 08:50 molto_nuvoloso Molto Nuvoloso 10 8 87 1016 10 S/SO 14.8
Oggi h: 08:20 molto_nuvoloso Molto Nuvoloso 10 8 87 1016 10 S/SO 13
Oggi h: 07:50 molto_nuvoloso Molto Nuvoloso 9 7 87 1015 10 S/SO 14.8
Oggi h: 07:20 molto_nuvoloso Molto Nuvoloso 9 8 93 1015 10 S/SO 11.1
Oggi h: 06:50 molto_nuvoloso Molto Nuvoloso 9 7 87 1015 10 SO 11.1
Oggi h: 06:20 sereno Sereno 9 7 87 1015 10 S/SO 11.1
Oggi h: 05:50 sereno Sereno 9 7 87 1015 10 S/SO 11.1
Oggi h: 05:20 nuvoloso Nuvoloso 9 7 87 1015 10 SO 11.1
Oggi h: 04:50 sereno Sereno 9 7 87 1015 10 SO 7.4
Oggi h: 04:20 sereno Sereno 9 7 87 1015 10 S/SO 11.1
Oggi h: 03:50 sereno Sereno 10 7 81 1015 10 S/SO 13
Oggi h: 03:20 sereno Sereno 10 7 81 1015 10 S/SO 13
Oggi h: 02:50 sereno Sereno 10 8 87 1015 10 S/SO 13
Oggi h: 02:20 sereno Sereno 10 8 87 1016 10 S/SO 13
Oggi h: 01:50 sereno Sereno 10 8 87 1016 10 S/SO 14.8
Oggi h: 01:20 sereno Sereno 10 8 87 1016 10 SO 11.1
Oggi h: 00:50 nuvoloso Nuvoloso 11 8 81 1016 10 S/SO 11.1
Oggi h: 00:20 coperto_pioggia Pioggia Debole 11 8 81 1016 10 S/SO 13
Ieri h: 23:50 coperto_pioggia Pioggia Debole 11 8 81 1016 10 SO 9.3
Ieri h: 23:20 coperto Coperto 11 8 81 1016 10 S/SO 13
Ieri h: 22:50 coperto_pioggia Pioggia Debole 11 8 81 1016 10 S/SO 13
Ieri h: 22:20 coperto Coperto 12 8 76 1016 10 SO 9.3
Ieri h: 21:50 coperto Coperto 12 8 76 1016 10 S/SO 13
Ieri h: 21:20 molto_nuvoloso Molto Nuvoloso 12 9 81 1016 10 S/SO 13
Ieri h: 20:50 poco_nuvoloso Poco Nuvoloso 12 8 76 1016 10 SO 11.1
Ieri h: 20:20 coperto Coperto 11 8 81 1016 10 S/SO 11.1
Ieri h: 19:50 nuvoloso Nuvoloso 11 8 81 1016 10 S/SO 13
Ieri h: 19:20 sereno Sereno 11 8 81 1016 10 S/SO 16.7
Ieri h: 18:50 sereno Sereno 11 8 81 1015 10 S/SO 16.7
Ieri h: 18:20 poco_nuvoloso Poco Nuvoloso 11 7 76 1016 10 SO 18.5
Ieri h: 17:50 molto_nuvoloso Molto Nuvoloso 12 7 71 1015 10 SO 20.3
Ieri h: 17:20 molto_nuvoloso Molto Nuvoloso 12 8 76 1015 10 SO 18.5
Ieri h: 16:50 molto_nuvoloso Molto Nuvoloso 13 8 71 1015 10 S/SO 18.5
Ieri h: 16:20 molto_nuvoloso Molto Nuvoloso 13 8 71 1014 10 S/SO 20.3
Ieri h: 15:50 sereno Sereno 14 8 67 1014 10 SO 16.7
Ieri h: 15:20 sereno Sereno 14 7 62 1014 10 S/SO 14.8
Ieri h: 14:50 sereno Sereno 14 7 62 1014 10 S/SO 16.7